"","detectorid","starttime","volume","speed","occupancy","countreadings","vmt","vht","delay","traveltime","count_bad_speed","count_bad_volu","count_bad_occu"
"1",1560,2009-01-01 00:05:00,21,52.3800010681152,1.39999997615814,15,18.69,0.36,0.13,1.02,NA,NA,NA
"2",1560,2009-01-01 00:10:00,31,51.939998626709,2.13000011444092,15,27.59,0.53,0.14,1.03,NA,NA,NA
"3",1560,2009-01-01 00:15:00,34,55.0299987792969,2.67000007629395,15,30.26,0.55,0.08,0.97,NA,NA,NA
"4",1560,2009-01-01 00:20:00,44,52.3600006103516,3.52999997138977,15,39.16,0.75,0.13,1.02,NA,NA,NA
"5",1560,2009-01-01 00:25:00,59,51.9500007629395,4.40000009536743,15,52.51,1.01,0.14,1.03,NA,NA,NA
"6",1560,2009-01-01 00:30:00,57,51.2999992370605,4.19999980926514,15,50.73,0.99,0.15,1.04,NA,NA,NA
"7",1560,2009-01-01 00:35:00,59,49.7099990844727,4.67000007629395,15,52.51,1.06,0.18,1.07,NA,NA,NA
"8",1560,2009-01-01 00:40:00,57,51.810001373291,4.32999992370605,15,50.73,0.98,0.14,1.03,NA,NA,NA
"9",1560,2009-01-01 00:45:00,67,52.2700004577637,5.13000011444092,15,59.63,1.14,0.13,1.02,NA,NA,NA
"10",1560,2009-01-01 00:50:00,59,52.2900009155273,4.53000020980835,15,52.51,1,0.13,1.02,NA,NA,NA
"11",1560,2009-01-01 00:55:00,58,50.9500007629395,4.32999992370605,15,51.62,1.01,0.16,1.05,NA,NA,NA
"12",1560,2009-01-01 01:00:00,66,52.7299995422363,5.32999992370605,15,58.74,1.11,0.12,1.01,NA,NA,NA
"13",1560,2009-01-01 01:05:00,62,52.5999984741211,4.53000020980835,15,55.18,1.05,0.13,1.02,NA,NA,NA
"14",1560,2009-01-01 01:10:00,65,52.2900009155273,5,15,57.85,1.11,0.13,1.02,NA,NA,NA
"15",1560,2009-01-01 01:15:00,61,53.0999984741211,4.53000020980835,15,54.29,1.02,0.12,1.01,NA,NA,NA
"16",1560,2009-01-01 01:20:00,59,51.3600006103516,4.46999979019165,15,52.51,1.02,0.15,1.04,NA,NA,NA
"17",1560,2009-01-01 01:25:00,52,51.6699981689453,3.79999995231628,15,46.28,0.9,0.14,1.03,NA,NA,NA
"18",1560,2009-01-01 01:30:00,60,51.0200004577637,4.92999982833862,15,53.4,1.05,0.16,1.05,NA,NA,NA
"19",1560,2009-01-01 01:35:00,56,51.1599998474121,4,15,49.84,0.97,0.15,1.04,NA,NA,NA
"20",1560,2009-01-01 01:40:00,51,52.3699989318848,3.79999995231628,15,45.39,0.87,0.13,1.02,NA,NA,NA
"21",1560,2009-01-01 01:45:00,48,51.5999984741211,3.52999997138977,15,42.72,0.83,0.14,1.03,NA,NA,NA
"22",1560,2009-01-01 01:50:00,51,52.060001373291,4,15,45.39,0.87,0.14,1.03,NA,NA,NA
"23",1560,2009-01-01 01:55:00,41,53.9799995422363,2.73000001907349,15,36.49,0.68,0.1,0.99,NA,NA,NA
"24",1560,2009-01-01 02:00:00,44,53.7299995422363,3,15,39.16,0.73,0.1,0.99,NA,NA,NA
"25",1560,2009-01-01 02:05:00,31,52.810001373291,2.26999998092651,15,27.59,0.52,0.12,1.01,NA,NA,NA
"26",1560,2009-01-01 02:10:00,35,52.2900009155273,2.26999998092651,15,31.15,0.6,0.13,1.02,NA,NA,NA
"27",1560,2009-01-01 02:15:00,41,50.1500015258789,3.40000009536743,15,36.49,0.73,0.17,1.06,NA,NA,NA
"28",1560,2009-01-01 02:20:00,41,53,3.26999998092651,15,36.49,0.69,0.12,1.01,NA,NA,NA
"29",1560,2009-01-01 02:25:00,31,54.939998626709,2.13000011444092,15,27.59,0.5,0.08,0.97,NA,NA,NA
"30",1560,2009-01-01 02:30:00,36,53.4700012207031,2.79999995231628,15,32.04,0.6,0.11,1,NA,NA,NA
"31",1560,2009-01-01 02:35:00,31,53.3499984741211,2,15,27.59,0.52,0.11,1,NA,NA,NA
"32",1560,2009-01-01 02:40:00,23,50.7400016784668,1.60000002384186,15,20.47,0.4,0.16,1.05,NA,NA,NA
"33",1560,2009-01-01 02:45:00,37,54.6199989318848,2.47000002861023,15,32.93,0.6,0.09,0.98,NA,NA,NA
"34",1560,2009-01-01 02:50:00,37,52.1100006103516,2.67000007629395,15,32.93,0.63,0.13,1.02,NA,NA,NA
"35",1560,2009-01-01 02:55:00,23,54.7000007629395,1.73000001907349,15,20.47,0.37,0.09,0.98,NA,NA,NA
"36",1560,2009-01-01 03:00:00,19,55.6800003051758,1.26999998092651,15,16.91,0.3,0.07,0.96,NA,NA,NA
"37",1560,2009-01-01 03:05:00,24,51.3300018310547,1.60000002384186,15,21.36,0.42,0.15,1.04,NA,NA,NA
"38",1560,2009-01-01 03:10:00,28,53.0400009155273,1.92999994754791,15,24.92,0.47,0.12,1.01,NA,NA,NA
"39",1560,2009-01-01 03:15:00,32,54.6300010681152,2.20000004768372,15,28.48,0.52,0.09,0.98,NA,NA,NA
"40",1560,2009-01-01 03:20:00,21,53.8600006103516,1.60000002384186,15,18.69,0.35,0.1,0.99,NA,NA,NA
"41",1560,2009-01-01 03:25:00,21,53.9500007629395,1.39999997615814,15,18.69,0.35,0.1,0.99,NA,NA,NA
"42",1560,2009-01-01 03:30:00,18,52.8899993896484,1.39999997615814,15,16.02,0.3,0.12,1.01,NA,NA,NA
"43",1560,2009-01-01 03:35:00,23,52.2999992370605,1.66999995708466,15,20.47,0.39,0.13,1.02,NA,NA,NA
"44",1560,2009-01-01 03:40:00,25,53.0400009155273,1.66999995708466,15,22.25,0.42,0.12,1.01,NA,NA,NA
"45",1560,2009-01-01 03:45:00,20,56.25,1.33000004291534,15,17.8,0.32,0.06,0.95,NA,NA,NA
"46",1560,2009-01-01 03:50:00,22,53.5900001525879,1.47000002861023,15,19.58,0.37,0.11,1,NA,NA,NA
"47",1560,2009-01-01 03:55:00,13,58.0800018310547,0.800000011920929,15,11.57,0.2,0.03,0.92,NA,NA,NA
"48",1560,2009-01-01 04:00:00,21,53.0499992370605,1.52999997138977,15,18.69,0.35,0.12,1.01,NA,NA,NA
"49",1560,2009-01-01 04:05:00,15,54.0699996948242,0.870000004768372,15,13.35,0.25,0.1,0.99,NA,NA,NA
"50",1560,2009-01-01 04:10:00,19,51.4700012207031,1.20000004768372,15,16.91,0.33,0.15,1.04,NA,NA,NA
"51",1560,2009-01-01 04:15:00,20,51.6500015258789,1.39999997615814,15,17.8,0.34,0.14,1.03,NA,NA,NA
"52",1560,2009-01-01 04:20:00,17,48.5299987792969,1.07000005245209,15,15.13,0.31,0.21,1.1,NA,NA,NA
"53",1560,2009-01-01 04:25:00,18,53.8899993896484,1.12999999523163,15,16.02,0.3,0.1,0.99,NA,NA,NA
"54",1560,2009-01-01 04:30:00,18,54.6699981689453,1.20000004768372,15,16.02,0.29,0.09,0.98,NA,NA,NA
"55",1560,2009-01-01 04:35:00,12,45.0800018310547,0.800000011920929,15,10.68,0.24,0.29,1.18,NA,NA,NA
"56",1560,2009-01-01 04:40:00,11,53.7299995422363,0.800000011920929,15,9.79,0.18,0.1,0.99,NA,NA,NA
"57",1560,2009-01-01 04:45:00,14,53.6399993896484,1,15,12.46,0.23,0.11,1,NA,NA,NA
"58",1560,2009-01-01 04:50:00,14,56.7900009155273,0.930000007152557,15,12.46,0.22,0.05,0.94,NA,NA,NA
"59",1560,2009-01-01 04:55:00,7,52.8600006103516,0.469999998807907,15,6.23,0.12,0.12,1.01,NA,NA,NA
"60",1560,2009-01-01 05:00:00,12,56.5,1,15,10.68,0.19,0.06,0.95,NA,NA,NA
"61",1560,2009-01-01 05:05:00,9,54.560001373291,0.600000023841858,15,8.01,0.15,0.09,0.98,NA,NA,NA
"62",1560,2009-01-01 05:10:00,11,54.6399993896484,0.730000019073486,15,9.79,0.18,0.09,0.98,NA,NA,NA
"63",1560,2009-01-01 05:15:00,7,57.4300003051758,0.400000005960464,15,6.23,0.11,0.04,0.93,NA,NA,NA
"64",1560,2009-01-01 05:20:00,13,54.4599990844727,0.870000004768372,15,11.57,0.21,0.09,0.98,NA,NA,NA
"65",1560,2009-01-01 05:25:00,11,53.6399993896484,0.730000019073486,15,9.79,0.18,0.11,1,NA,NA,NA
"66",1560,2009-01-01 05:30:00,16,53.5,0.930000007152557,15,14.24,0.27,0.11,1,NA,NA,NA
"67",1560,2009-01-01 05:35:00,11,55.5499992370605,0.730000019073486,15,9.79,0.18,0.07,0.96,NA,NA,NA
"68",1560,2009-01-01 05:40:00,11,53,0.730000019073486,15,9.79,0.18,0.12,1.01,NA,NA,NA
"69",1560,2009-01-01 05:45:00,7,44.4300003051758,0.469999998807907,15,6.23,0.14,0.31,1.2,NA,NA,NA
"70",1560,2009-01-01 05:50:00,16,51.560001373291,1.07000005245209,15,14.24,0.28,0.15,1.04,NA,NA,NA
"71",1560,2009-01-01 05:55:00,15,54.6699981689453,1,15,13.35,0.24,0.09,0.98,NA,NA,NA
"72",1560,2009-01-01 06:00:00,12,54.6699981689453,0.730000019073486,15,10.68,0.2,0.09,0.98,NA,NA,NA
"73",1560,2009-01-01 06:05:00,19,54.1599998474121,1.52999997138977,15,16.91,0.31,0.1,0.99,NA,NA,NA
"74",1560,2009-01-01 06:10:00,13,48.4599990844727,0.930000007152557,15,11.57,0.24,0.21,1.1,NA,NA,NA
"75",1560,2009-01-01 06:15:00,10,55.5999984741211,0.670000016689301,15,8.9,0.16,0.07,0.96,NA,NA,NA
"76",1560,2009-01-01 06:20:00,17,51.1199989318848,1.26999998092651,15,15.13,0.3,0.15,1.04,NA,NA,NA
"77",1560,2009-01-01 06:25:00,15,56.5999984741211,0.870000004768372,15,13.35,0.24,0.05,0.94,NA,NA,NA
"78",1560,2009-01-01 06:30:00,20,54.4000015258789,1.47000002861023,15,17.8,0.33,0.09,0.98,NA,NA,NA
"79",1560,2009-01-01 06:35:00,20,55.2999992370605,1.33000004291534,15,17.8,0.32,0.08,0.97,NA,NA,NA
"80",1560,2009-01-01 06:40:00,13,50.310001373291,0.800000011920929,15,11.57,0.23,0.17,1.06,NA,NA,NA
"81",1560,2009-01-01 06:45:00,17,55.5900001525879,1.20000004768372,15,15.13,0.27,0.07,0.96,NA,NA,NA
"82",1560,2009-01-01 06:50:00,18,54.7799987792969,1.33000004291534,15,16.02,0.29,0.08,0.97,NA,NA,NA
"83",1560,2009-01-01 06:55:00,13,57.0800018310547,0.800000011920929,15,11.57,0.2,0.05,0.94,NA,NA,NA
"84",1560,2009-01-01 07:00:00,16,54.189998626709,1.12999999523163,15,14.24,0.26,0.1,0.99,NA,NA,NA
"85",1560,2009-01-01 07:05:00,19,52,1.12999999523163,15,16.91,0.33,0.14,1.03,NA,NA,NA
"86",1560,2009-01-01 07:10:00,12,50.6699981689453,0.930000007152557,15,10.68,0.21,0.16,1.05,NA,NA,NA
"87",1560,2009-01-01 07:15:00,16,53.810001373291,1,15,14.24,0.26,0.1,0.99,NA,NA,NA
"88",1560,2009-01-01 07:20:00,25,52.0800018310547,1.73000001907349,15,22.25,0.43,0.14,1.03,NA,NA,NA
"89",1560,2009-01-01 07:25:00,22,53.4500007629395,1.47000002861023,15,19.58,0.37,0.11,1,NA,NA,NA
"90",1560,2009-01-01 07:30:00,21,50.7599983215332,1.39999997615814,15,18.69,0.37,0.16,1.05,NA,NA,NA
"91",1560,2009-01-01 07:35:00,29,50.9300003051758,2.0699999332428,15,25.81,0.51,0.16,1.05,NA,NA,NA
"92",1560,2009-01-01 07:40:00,20,54.5999984741211,1.33000004291534,15,17.8,0.33,0.09,0.98,NA,NA,NA
"93",1560,2009-01-01 07:45:00,23,53.4300003051758,1.60000002384186,15,20.47,0.38,0.11,1,NA,NA,NA
"94",1560,2009-01-01 07:50:00,23,55.7400016784668,1.60000002384186,15,20.47,0.37,0.07,0.96,NA,NA,NA
"95",1560,2009-01-01 07:55:00,18,52.2200012207031,1.20000004768372,15,16.02,0.31,0.13,1.02,NA,NA,NA
"96",1560,2009-01-01 08:00:00,16,57.560001373291,1,15,14.24,0.25,0.04,0.93,NA,NA,NA
"97",1560,2009-01-01 08:05:00,23,54.9099998474121,1.52999997138977,15,20.47,0.37,0.08,0.97,NA,NA,NA
"98",1560,2009-01-01 08:10:00,27,55.189998626709,2,15,24.03,0.44,0.08,0.97,NA,NA,NA
"99",1560,2009-01-01 08:15:00,23,51.3499984741211,1.79999995231628,15,20.47,0.4,0.15,1.04,NA,NA,NA
"100",1560,2009-01-01 08:20:00,26,58.0800018310547,1.73000001907349,15,23.14,0.4,0.03,0.92,NA,NA,NA
"101",1560,2009-01-01 08:25:00,15,58.5999984741211,0.930000007152557,15,13.35,0.23,0.02,0.91,NA,NA,NA
"102",1560,2009-01-01 08:30:00,23,58.0900001525879,1.33000004291534,15,20.47,0.35,0.03,0.92,NA,NA,NA
"103",1560,2009-01-01 08:35:00,23,57.9099998474121,1.33000004291534,15,20.47,0.35,0.03,0.92,NA,NA,NA
"104",1560,2009-01-01 08:40:00,31,55.6500015258789,2.13000011444092,15,27.59,0.5,0.07,0.96,NA,NA,NA
"105",1560,2009-01-01 08:45:00,25,55.5200004577637,1.73000001907349,15,22.25,0.4,0.07,0.96,NA,NA,NA
"106",1560,2009-01-01 08:50:00,28,56.3199996948242,2,15,24.92,0.44,0.06,0.95,NA,NA,NA
"107",1560,2009-01-01 08:55:00,32,55.7799987792969,2.0699999332428,15,28.48,0.51,0.07,0.96,NA,NA,NA
"108",1560,2009-01-01 09:00:00,23,58.2999992370605,1.47000002861023,15,20.47,0.35,0.03,0.92,NA,NA,NA
"109",1560,2009-01-01 09:05:00,18,55.560001373291,1.12999999523163,15,16.02,0.29,0.07,0.96,NA,NA,NA
"110",1560,2009-01-01 09:10:00,31,57.3199996948242,2.0699999332428,15,27.59,0.48,0.04,0.93,NA,NA,NA
"111",1560,2009-01-01 09:15:00,44,57.3400001525879,3,15,39.16,0.68,0.04,0.93,NA,NA,NA
"112",1560,2009-01-01 09:20:00,31,56.3899993896484,2,15,27.59,0.49,0.06,0.95,NA,NA,NA
"113",1560,2009-01-01 09:25:00,40,58.2799987792969,2.59999990463257,15,35.6,0.61,0.03,0.92,NA,NA,NA
"114",1560,2009-01-01 09:30:00,27,55.3699989318848,1.79999995231628,15,24.03,0.43,0.07,0.96,NA,NA,NA
"115",1560,2009-01-01 09:35:00,37,57.1599998474121,2.64000010490417,14,32.93,0.58,0.04,0.93,NA,NA,NA
"116",1560,2009-01-01 09:40:00,44,56.0499992370605,3.20000004768372,15,39.16,0.7,0.06,0.95,NA,NA,NA
"117",1560,2009-01-01 09:45:00,45,57.5800018310547,2.86999988555908,15,40.05,0.7,0.04,0.93,NA,NA,NA
"118",1560,2009-01-01 09:50:00,58,56.2200012207031,4.19999980926514,15,51.62,0.92,0.06,0.95,NA,NA,NA
"119",1560,2009-01-01 09:55:00,48,56.0999984741211,3.26999998092651,15,42.72,0.76,0.06,0.95,NA,NA,NA
"120",1560,2009-01-01 10:00:00,43,56.2999992370605,2.86999988555908,15,38.27,0.68,0.06,0.95,NA,NA,NA
"121",1560,2009-01-01 10:05:00,43,58.0499992370605,3,15,38.27,0.66,0.03,0.92,NA,NA,NA
"122",1560,2009-01-01 10:10:00,45,56.0699996948242,3.20000004768372,15,40.05,0.71,0.06,0.95,NA,NA,NA
"123",1560,2009-01-01 10:15:00,59,54.3199996948242,4.19999980926514,15,52.51,0.97,0.09,0.98,NA,NA,NA
"124",1560,2009-01-01 10:20:00,61,54.4599990844727,4.32999992370605,15,54.29,1,0.09,0.98,NA,NA,NA
"125",1560,2009-01-01 10:25:00,55,56.9599990844727,4.13000011444092,15,48.95,0.86,0.05,0.94,NA,NA,NA
"126",1560,2009-01-01 10:30:00,60,57.2700004577637,4.07000017166138,15,53.4,0.93,0.04,0.93,NA,NA,NA
"127",1560,2009-01-01 10:35:00,51,56.75,3.52999997138977,15,45.39,0.8,0.05,0.94,NA,NA,NA
"128",1560,2009-01-01 10:40:00,50,55.7599983215332,3.67000007629395,15,44.5,0.8,0.07,0.96,NA,NA,NA
"129",1560,2009-01-01 10:45:00,81,54.2099990844727,5.80000019073486,15,72.09,1.33,0.1,0.99,NA,NA,NA
"130",1560,2009-01-01 10:50:00,53,55.7700004577637,3.52999997138977,15,47.17,0.85,0.07,0.96,NA,NA,NA
"131",1560,2009-01-01 10:55:00,68,56.2400016784668,5.13000011444092,15,60.52,1.08,0.06,0.95,NA,NA,NA
"132",1560,2009-01-01 11:00:00,67,55.810001373291,5,15,59.63,1.07,0.07,0.96,NA,NA,NA
"133",1560,2009-01-01 11:05:00,71,54.5400009155273,5.5,14,63.19,1.16,0.09,0.98,NA,NA,NA
"134",1560,2009-01-01 11:10:00,64,55.9099998474121,4.59999990463257,15,56.96,1.02,0.07,0.96,NA,NA,NA
"135",1560,2009-01-01 11:15:00,71,54.7900009155273,5,15,63.19,1.15,0.08,0.97,NA,NA,NA
"136",1560,2009-01-01 11:20:00,69,53.4099998474121,4.92999982833862,15,61.41,1.15,0.11,1,NA,NA,NA
"137",1560,2009-01-01 11:25:00,76,55.2000007629395,5.67000007629395,15,67.64,1.23,0.08,0.97,NA,NA,NA
"138",1560,2009-01-01 11:30:00,76,56.3800010681152,5.59999990463257,15,67.64,1.2,0.06,0.95,NA,NA,NA
"139",1560,2009-01-01 11:35:00,72,54.1300010681152,5.32999992370605,15,64.08,1.18,0.1,0.99,NA,NA,NA
"140",1560,2009-01-01 11:40:00,71,53.8899993896484,5.19999980926514,15,63.19,1.17,0.1,0.99,NA,NA,NA
"141",1560,2009-01-01 11:45:00,82,54.0999984741211,6,15,72.98,1.35,0.1,0.99,NA,NA,NA
"142",1560,2009-01-01 11:50:00,87,54.0099983215332,6.46999979019165,15,77.43,1.43,0.1,0.99,NA,NA,NA
"143",1560,2009-01-01 11:55:00,67,56.7000007629395,5.69000005722046,13,59.63,1.05,0.05,0.94,NA,NA,NA
"144",1560,2009-01-01 12:00:00,72,54.1800003051758,5.53000020980835,15,64.08,1.18,0.1,0.99,NA,NA,NA
"145",1560,2009-01-01 12:05:00,69,52.3800010681152,5.07000017166138,15,61.41,1.17,0.13,1.02,NA,NA,NA
"146",1560,2009-01-01 12:10:00,64,55.4700012207031,4.53000020980835,15,56.96,1.03,0.07,0.96,NA,NA,NA
"147",1560,2009-01-01 12:15:00,90,52.0200004577637,7.07000017166138,15,80.1,1.54,0.14,1.03,NA,NA,NA
"148",1560,2009-01-01 12:20:00,83,51.0099983215332,7,14,73.87,1.45,0.16,1.05,NA,NA,NA
"149",1560,2009-01-01 12:25:00,85,53.2099990844727,6.53000020980835,15,75.65,1.42,0.11,1,NA,NA,NA
"150",1560,2009-01-01 12:30:00,96,52.5,7.80000019073486,15,85.44,1.63,0.13,1.02,NA,NA,NA
"151",1560,2009-01-01 12:35:00,89,51.689998626709,6.92999982833862,15,79.21,1.53,0.14,1.03,NA,NA,NA
"152",1560,2009-01-01 12:40:00,85,54.2400016784668,6.07000017166138,15,75.65,1.39,0.09,0.98,NA,NA,NA
"153",1560,2009-01-01 12:45:00,99,51.689998626709,7.67000007629395,15,88.11,1.7,0.14,1.03,NA,NA,NA
"154",1560,2009-01-01 12:50:00,86,52.3499984741211,6.67000007629395,15,76.54,1.46,0.13,1.02,NA,NA,NA
"155",1560,2009-01-01 12:55:00,90,52.9099998474121,6.86999988555908,15,80.1,1.51,0.12,1.01,NA,NA,NA
"156",1560,2009-01-01 13:00:00,87,53.3199996948242,6.59999990463257,15,77.43,1.45,0.11,1,NA,NA,NA
"157",1560,2009-01-01 13:05:00,84,54.1699981689453,6.53000020980835,15,74.76,1.38,0.1,0.99,NA,NA,NA
"158",1560,2009-01-01 13:10:00,95,50.9799995422363,7.86999988555908,15,84.55,1.66,0.16,1.05,NA,NA,NA
"159",1560,2009-01-01 13:15:00,95,53.8699989318848,7.67000007629395,15,84.55,1.57,0.1,0.99,NA,NA,NA
"160",1560,2009-01-01 13:20:00,90,51.6699981689453,7.32999992370605,15,80.1,1.55,0.14,1.03,NA,NA,NA
"161",1560,2009-01-01 13:25:00,95,51.439998626709,7.73000001907349,15,84.55,1.64,0.15,1.04,NA,NA,NA
"162",1560,2009-01-01 13:30:00,91,51.0299987792969,7.07000017166138,15,80.99,1.59,0.16,1.05,NA,NA,NA
"163",1560,2009-01-01 13:35:00,100,51.8400001525879,7.67000007629395,15,89,1.72,0.14,1.03,NA,NA,NA
"164",1560,2009-01-01 13:40:00,94,50.9599990844727,7.32999992370605,15,83.66,1.64,0.16,1.05,NA,NA,NA
"165",1560,2009-01-01 13:45:00,81,53.1100006103516,6.40000009536743,15,72.09,1.36,0.12,1.01,NA,NA,NA
"166",1560,2009-01-01 13:50:00,97,50.9500007629395,7.53000020980835,15,86.33,1.69,0.16,1.05,NA,NA,NA
"167",1560,2009-01-01 13:55:00,99,52.6399993896484,8,15,88.11,1.67,0.12,1.01,NA,NA,NA
"168",1560,2009-01-01 14:00:00,99,52.2799987792969,7.86999988555908,15,88.11,1.69,0.13,1.02,NA,NA,NA
"169",1560,2009-01-01 14:05:00,94,52.7599983215332,7.40000009536743,15,83.66,1.59,0.12,1.01,NA,NA,NA
"170",1560,2009-01-01 14:10:00,91,52.0800018310547,7.07000017166138,15,80.99,1.56,0.14,1.03,NA,NA,NA
"171",1560,2009-01-01 14:15:00,97,53.9900016784668,7.67000007629395,15,86.33,1.6,0.1,0.99,NA,NA,NA
"172",1560,2009-01-01 14:20:00,81,54.4199981689453,5.86999988555908,15,72.09,1.32,0.09,0.98,NA,NA,NA
"173",1560,2009-01-01 14:25:00,91,52.9799995422363,6.92999982833862,15,80.99,1.53,0.12,1.01,NA,NA,NA
"174",1560,2009-01-01 14:30:00,78,54.1399993896484,5.86999988555908,15,69.42,1.28,0.1,0.99,NA,NA,NA
"175",1560,2009-01-01 14:35:00,96,51.3400001525879,7.80000019073486,15,85.44,1.66,0.15,1.04,NA,NA,NA
"176",1560,2009-01-01 14:40:00,92,54.5699996948242,7.26999998092651,15,81.88,1.5,0.09,0.98,NA,NA,NA
"177",1560,2009-01-01 14:45:00,88,51.8199996948242,6.92999982833862,15,78.32,1.51,0.14,1.03,NA,NA,NA
"178",1560,2009-01-01 14:50:00,71,53.8899993896484,5.46999979019165,15,63.19,1.17,0.1,0.99,NA,NA,NA
"179",1560,2009-01-01 14:55:00,56,54.4599990844727,4.07000017166138,15,49.84,0.92,0.09,0.98,NA,NA,NA
"180",1560,2009-01-01 15:00:00,92,53.9500007629395,7.07000017166138,15,81.88,1.52,0.1,0.99,NA,NA,NA
"181",1560,2009-01-01 15:05:00,77,53.25,5.86999988555908,15,68.53,1.29,0.11,1,NA,NA,NA
"182",1560,2009-01-01 15:10:00,73,53.7099990844727,5.67000007629395,15,64.97,1.21,0.1,0.99,NA,NA,NA
"183",1560,2009-01-01 15:15:00,67,54.4000015258789,4.92999982833862,15,59.63,1.1,0.09,0.98,NA,NA,NA
"184",1560,2009-01-01 15:20:00,92,51.2999992370605,7.19999980926514,15,81.88,1.6,0.15,1.04,NA,NA,NA
"185",1560,2009-01-01 15:25:00,64,55.2200012207031,4.73000001907349,15,56.96,1.03,0.08,0.97,NA,NA,NA
"186",1560,2009-01-01 15:30:00,75,51.8800010681152,5.86999988555908,15,66.75,1.29,0.14,1.03,NA,NA,NA
"187",1560,2009-01-01 15:35:00,79,52.9000015258789,6.13000011444092,15,70.31,1.33,0.12,1.01,NA,NA,NA
"188",1560,2009-01-01 15:40:00,69,53.6800003051758,5.32999992370605,15,61.41,1.14,0.1,0.99,NA,NA,NA
"189",1560,2009-01-01 15:45:00,98,53.5499992370605,7.80000019073486,15,87.22,1.63,0.11,1,NA,NA,NA
"190",1560,2009-01-01 15:50:00,86,53.7200012207031,6.53000020980835,15,76.54,1.42,0.1,0.99,NA,NA,NA
"191",1560,2009-01-01 15:55:00,70,54.4900016784668,5.53000020980835,15,62.3,1.14,0.09,0.98,NA,NA,NA
"192",1560,2009-01-01 16:00:00,68,53.5099983215332,4.92999982833862,15,60.52,1.13,0.11,1,NA,NA,NA
"193",1560,2009-01-01 16:05:00,62,53.0499992370605,4.46999979019165,15,55.18,1.04,0.12,1.01,NA,NA,NA
"194",1560,2009-01-01 16:10:00,71,55.7599983215332,5,15,63.19,1.13,0.07,0.96,NA,NA,NA
"195",1560,2009-01-01 16:15:00,69,52.6100006103516,5.26999998092651,15,61.41,1.17,0.13,1.02,NA,NA,NA
"196",1560,2009-01-01 16:20:00,64,53.2000007629395,4.86999988555908,15,56.96,1.07,0.11,1,NA,NA,NA
"197",1560,2009-01-01 16:25:00,57,54.5099983215332,3.9300000667572,15,50.73,0.93,0.09,0.98,NA,NA,NA
"198",1560,2009-01-01 16:30:00,65,51.4199981689453,5.26999998092651,15,57.85,1.13,0.15,1.04,NA,NA,NA
"199",1560,2009-01-01 16:35:00,59,52.5900001525879,4.46999979019165,15,52.51,1,0.13,1.02,NA,NA,NA
"200",1560,2009-01-01 16:40:00,81,51.3699989318848,6.67000007629395,15,72.09,1.4,0.15,1.04,NA,NA,NA
"201",1560,2009-01-01 16:45:00,75,50.9900016784668,5.92999982833862,15,66.75,1.31,0.16,1.05,NA,NA,NA
"202",1560,2009-01-01 16:50:00,64,49.2700004577637,5.19999980926514,15,56.96,1.16,0.19,1.08,NA,NA,NA
"203",1560,2009-01-01 16:55:00,65,49.5499992370605,5.53000020980835,15,57.85,1.17,0.19,1.08,NA,NA,NA
"204",1560,2009-01-01 17:00:00,75,49.2099990844727,5.86999988555908,15,66.75,1.36,0.2,1.09,NA,NA,NA
"205",1560,2009-01-01 17:05:00,67,46.6300010681152,5.53000020980835,15,59.63,1.28,0.26,1.15,NA,NA,NA
"206",1560,2009-01-01 17:10:00,90,48.1399993896484,7.80000019073486,15,80.1,1.66,0.22,1.11,NA,NA,NA
"207",1560,2009-01-01 17:15:00,63,48.6300010681152,5.13000011444092,15,56.07,1.15,0.21,1.1,NA,NA,NA
"208",1560,2009-01-01 17:20:00,57,51.6100006103516,4.73000001907349,15,50.73,0.98,0.14,1.03,NA,NA,NA
"209",1560,2009-01-01 17:25:00,70,50.5900001525879,5.46999979019165,15,62.3,1.23,0.17,1.06,NA,NA,NA
"210",1560,2009-01-01 17:30:00,62,48.9199981689453,5.07000017166138,15,55.18,1.13,0.2,1.09,NA,NA,NA
"211",1560,2009-01-01 17:35:00,69,47.8800010681152,5.86999988555908,15,61.41,1.28,0.23,1.12,NA,NA,NA
"212",1560,2009-01-01 17:40:00,59,50.0800018310547,4.73000001907349,15,52.51,1.05,0.18,1.07,NA,NA,NA
"213",1560,2009-01-01 17:45:00,54,47.5400009155273,4.46999979019165,15,48.06,1.01,0.23,1.12,NA,NA,NA
"214",1560,2009-01-01 17:50:00,66,49.4099998474121,5.07000017166138,15,58.74,1.19,0.19,1.08,NA,NA,NA
"215",1560,2009-01-01 17:55:00,69,52.5400009155273,5.40000009536743,15,61.41,1.17,0.13,1.02,NA,NA,NA
"216",1560,2009-01-01 18:00:00,77,49.3899993896484,6.13000011444092,15,68.53,1.39,0.19,1.08,NA,NA,NA
"217",1560,2009-01-01 18:05:00,69,51.0400009155273,5.53000020980835,15,61.41,1.2,0.16,1.05,NA,NA,NA
"218",1560,2009-01-01 18:10:00,79,49.6800003051758,6.26999998092651,15,70.31,1.42,0.18,1.07,NA,NA,NA
"219",1560,2009-01-01 18:15:00,71,50.1500015258789,5.92999982833862,15,63.19,1.26,0.17,1.06,NA,NA,NA
"220",1560,2009-01-01 18:20:00,64,51.8600006103516,4.59999990463257,15,56.96,1.1,0.14,1.03,NA,NA,NA
"221",1560,2009-01-01 18:25:00,75,52.0299987792969,5.86999988555908,15,66.75,1.28,0.14,1.03,NA,NA,NA
"222",1560,2009-01-01 18:30:00,71,50.1500015258789,5.59999990463257,15,63.19,1.26,0.17,1.06,NA,NA,NA
"223",1560,2009-01-01 18:35:00,74,51.7999992370605,5.46999979019165,15,65.86,1.27,0.14,1.03,NA,NA,NA
"224",1560,2009-01-01 18:40:00,66,51.8499984741211,4.67000007629395,15,58.74,1.13,0.14,1.03,NA,NA,NA
"225",1560,2009-01-01 18:45:00,59,52.5299987792969,4.32999992370605,15,52.51,1,0.13,1.02,NA,NA,NA
"226",1560,2009-01-01 18:50:00,63,50.8600006103516,4.80000019073486,15,56.07,1.1,0.16,1.05,NA,NA,NA
"227",1560,2009-01-01 18:55:00,73,51.189998626709,5.73000001907349,15,64.97,1.27,0.15,1.04,NA,NA,NA
"228",1560,2009-01-01 19:00:00,64,52.310001373291,4.92999982833862,15,56.96,1.09,0.13,1.02,NA,NA,NA
"229",1560,2009-01-01 19:05:00,44,54.8400001525879,3.0699999332428,15,39.16,0.71,0.08,0.97,NA,NA,NA
"230",1560,2009-01-01 19:10:00,75,46.8400001525879,6.19999980926514,15,66.75,1.43,0.25,1.14,NA,NA,NA
"231",1560,2009-01-01 19:15:00,73,49.8499984741211,5.67000007629395,15,64.97,1.3,0.18,1.07,NA,NA,NA
"232",1560,2009-01-01 19:20:00,46,52.5200004577637,3.26999998092651,15,40.94,0.78,0.13,1.02,NA,NA,NA
"233",1560,2009-01-01 19:25:00,68,52.4599990844727,5.19999980926514,15,60.52,1.15,0.13,1.02,NA,NA,NA
"234",1560,2009-01-01 19:30:00,71,51.939998626709,5.19999980926514,15,63.19,1.22,0.14,1.03,NA,NA,NA
"235",1560,2009-01-01 19:35:00,64,52.0499992370605,5,15,56.96,1.09,0.14,1.03,NA,NA,NA
"236",1560,2009-01-01 19:40:00,63,52.4900016784668,4.40000009536743,15,56.07,1.07,0.13,1.02,NA,NA,NA
"237",1560,2009-01-01 19:45:00,76,50.3300018310547,6.19999980926514,15,67.64,1.34,0.17,1.06,NA,NA,NA
"238",1560,2009-01-01 19:50:00,48,52.4199981689453,3.47000002861023,15,42.72,0.81,0.13,1.02,NA,NA,NA
"239",1560,2009-01-01 19:55:00,66,52.439998626709,4.92999982833862,15,58.74,1.12,0.13,1.02,NA,NA,NA
"240",1560,2009-01-01 20:00:00,58,53.0200004577637,4.13000011444092,15,51.62,0.97,0.12,1.01,NA,NA,NA